Orbital Elements at Epoch 2459000.5 (2020-May-31.0) TDB
Reference: JPL 12 (heliocentric ecliptic J2000)
Element | Value | Uncertainty (1-sigma) | Units |
e | .1300294237420044 | 3.8566e-08 | |
a | 2.375733701663068 | 1.1722e-08 | au |
q | 2.066818417471361 | 9.3366e-08 | au |
i | .7663636699083066 | 4.6383e-06 | deg |
node | 326.2770593572375 | 0.00043032 | deg |
peri | 169.3097536700567 | 0.00043113 | deg |
M | 317.5034555539385 | 2.8559e-05 | deg |
tp | 2459158.386930367465 (2020-Nov-04.88693037) | 0.00010686 | TDB |
period | 1337.503923511484 3.66 | 9.8991e-06 2.71e-08 | d yr |
n | .2691580889384277 | 1.9921e-09 | deg/d |
Q | 2.684648985854776 | 1.3246e-08 | au |
|
| | Orbit Determination Parameters
Additional Information
|